Location: Unspecified
(40.9799°N, 76.1133°W)
Time: 02:00:09
(UTC-04:00)

Tianhe-1 - Visible Passes

Search period start: 24 June 2021 00:00
Search period end: 04 July 2021 00:00
Orbit: 375 x 386 km, 41.5° (Epoch: 23 June)

Date Brightness Start Highest point End Pass type
(mag) Time Alt. Az. Time Alt. Az. Time Alt. Az.
24 Jun 3.7 02:36:39 14° E 02:36:39 14° E 02:37:15 10° E visible
24 Jun 1.0 04:08:45 18° W 04:10:57 86° N 04:14:06 10° E visible
25 Jun 1.3 03:10:21 59° ESE 03:10:21 59° ESE 03:13:01 10° E visible
25 Jun 1.1 04:43:30 10° W 04:46:39 81° N 04:49:48 10° E visible
26 Jun 1.1 03:44:05 29° W 03:45:32 79° N 03:48:42 10° E visible
27 Jun 2.6 02:45:46 31° E 02:45:46 31° E 02:47:33 10° E visible
27 Jun 1.0 04:18:03 10° W 04:21:12 87° S 04:24:20 10° E visible
28 Jun 1.0 03:19:42 67° WNW 03:20:03 81° N 03:23:11 10° E visible
28 Jun 1.4 04:53:41 10° W 04:56:43 45° SSW 04:59:44 10° SE visible
29 Jun 4.0 02:21:44 12° E 02:21:44 12° E 02:21:59 10° E visible
29 Jun 0.9 03:53:53 24° W 03:55:36 68° SSW 03:58:44 10° ESE visible
30 Jun 3.0 02:56:19 22° E 02:56:19 22° E 02:57:34 10° E visible
30 Jun 1.9 04:28:30 12° W 04:31:00 29° SSW 04:33:47 10° SE visible
01 Jul 2.7 03:31:33 22° SE 03:31:33 22° SE 03:32:55 10° SE visible
02 Jul 1.9 22:11:23 10° SW 22:13:48 29° S 22:13:48 29° S visible
03 Jul 2.6 21:10:50 10° SSW 21:13:03 18° SSE 21:15:17 10° ESE visible
03 Jul 1.3 22:46:21 10° WSW 22:48:53 52° SW 22:48:53 52° SW visible
